Key West, FL

7:24 PM EDT on September 21, 2017 (GMT -0400)
Key West International

Weather History for KEYW - July, 2014

Change the Weather History Date:

Monday, July 7, 2014

  Actual Average Record
Temperature  
Mean Temperature 88 °F 84 °F  
Max Temperature 91 °F 89 °F 95 °F (1957)
Min Temperature 84 °F 80 °F 70 °F (1934)
Degree Days  
Heating Degree Days 0 0  
Month to date heating degree days 0 0  
Since 1 June heating degree days 0 0  
Since 1 July heating degree days 0 0  
Cooling Degree Days 23 19  
Month to date cooling degree days 152 133  
Year to date cooling degree days 2332 2112  
Since 1 June cooling degree days 710 682  
Growing Degree Days 38 (Base 50)    
Moisture  
Dew Point 74 °F    
Average Humidity 63    
Maximum Humidity 74    
Minimum Humidity 52    
Precipitation  
Precipitation 0.00 in 0.12 in 1.74 in (1988)
Month to date precipitation T 0.85  
Year to date precipitation 15.23 15.59  
Snow  
Snow 0.00 in - - ()
Month to date snowfall 0.0  
Since 1 June snowfall 0.0  
Since 1 July snowfall 0.0  
Snow Depth 0.00 in    
Sea Level Pressure  
Sea Level Pressure 30.07 in    
Wind  
Wind Speed 10 mph (ESE)    
Max Wind Speed 16 mph    
Max Gust Speed 23 mph    
Visibility 10 miles    
Events Thunderstorm    
T = Trace of Precipitation, MM = Missing Value Source: NWS Daily Summary

Daily Weather History Graph

Daily Weather History Graph

Search for Another Location

Airport or City:

Trip Planner

Search our weather history database for the weather conditions in past years. The results will help you decide how hot, cold, wet, or windy it might be!

Date:

Astronomy

Jul. 07, 2014 Rise Set
Actual Time 6:44 AM EDT 8:19 PM EDT
Civil Twilight 6:18 AM EDT 8:45 PM EDT
Nautical Twilight 5:48 AM EDT 9:15 PM EDT
Astronomical Twilight 5:16 AM EDT 9:47 PM EDT
Moon 3:36 PM EDT (7/7) 2:18 AM EDT (7/7)
Length of Visible Light 14h 26m
Length of Day
13h 35m
Waxing Gibbous, 72% of the Moon is Illuminated
Jul 7
Waxing Gibbous
Jul 12
Full
Jul 18
Last Quarter
Jul 26
New
Aug 3
First Quarter

Hourly Weather History & Observations

Time (EDT) Temp. Heat Index Dew Point Humidity Pressure Visibility Wind Dir Wind Speed Gust Speed Precip Events Conditions
12:53 AM 84.9 °F 92.1 °F 73.9 °F 69% 30.05 in 10.0 mi ESE 12.7 mph - N/A   Partly Cloudy
1:53 AM 84.9 °F 93.3 °F 75.0 °F 72% 30.04 in 10.0 mi ESE 12.7 mph - N/A   Partly Cloudy
2:53 AM 84.0 °F 91.2 °F 73.9 °F 72% 30.03 in 10.0 mi SE 13.8 mph - N/A   Partly Cloudy
3:53 AM 84.0 °F 91.9 °F 75.0 °F 74% 30.02 in 10.0 mi SE 12.7 mph - N/A   Scattered Clouds
4:53 AM 84.0 °F 91.9 °F 75.0 °F 74% 30.02 in 10.0 mi SE 10.4 mph - N/A   Partly Cloudy
5:53 AM 84.0 °F 91.9 °F 75.0 °F 74% 30.03 in 10.0 mi SE 10.4 mph - N/A   Partly Cloudy
6:53 AM 84.9 °F 92.1 °F 73.9 °F 69% 30.04 in 10.0 mi SSE 13.8 mph - N/A   Partly Cloudy
7:53 AM 84.9 °F 93.3 °F 75.0 °F 72% 30.06 in 10.0 mi SE 11.5 mph - N/A   Partly Cloudy
8:53 AM 86.0 °F 95.1 °F 75.0 °F 70% 30.07 in 10.0 mi SE 11.5 mph - N/A   Clear
9:53 AM 88.0 °F 97.5 °F 75.0 °F 65% 30.09 in 10.0 mi SSE 10.4 mph - N/A   Partly Cloudy
10:53 AM 88.0 °F 96.5 °F 73.9 °F 63% 30.10 in 10.0 mi South 8.1 mph - N/A   Partly Cloudy
11:53 AM 88.0 °F 96.5 °F 73.9 °F 63% 30.10 in 10.0 mi South 8.1 mph - N/A   Partly Cloudy
12:53 PM 88.0 °F 96.5 °F 73.9 °F 63% 30.10 in 10.0 mi SW 6.9 mph - N/A   Clear
1:53 PM 88.0 °F 96.5 °F 73.9 °F 63% 30.09 in 10.0 mi SSE 6.9 mph - N/A   Clear
2:53 PM 88.0 °F 96.5 °F 73.9 °F 63% 30.08 in 10.0 mi SSE 11.5 mph - N/A   Clear
3:22 PM 88.0 °F 97.5 °F 75.0 °F 65% 30.07 in 10.0 mi ESE 6.9 mph - N/A Thunderstorm Clear
3:50 PM 89.6 °F 99.8 °F 75.2 °F 62% 30.08 in 10.0 mi SE 9.2 mph - N/A Thunderstorm Thunderstorm
3:53 PM 89.1 °F 99.1 °F 75.0 °F 63% 30.08 in 10.0 mi ESE 9.2 mph - N/A Thunderstorm Thunderstorm
4:12 PM 86.0 °F 93.0 °F 73.0 °F 65% 30.07 in 10.0 mi North 13.8 mph 21.9 mph N/A Thunderstorm Partly Cloudy
4:20 PM 87.1 °F 93.6 °F 72.0 °F 61% 30.07 in 10.0 mi NNE 9.2 mph - N/A   Partly Cloudy
4:53 PM 89.1 °F 98.0 °F 73.9 °F 61% 30.07 in 10.0 mi Variable 6.9 mph - N/A   Clear
5:53 PM 90.0 °F 95.4 °F 70.0 °F 52% 30.07 in 10.0 mi North 6.9 mph - N/A   Clear
6:53 PM 88.0 °F 94.7 °F 72.0 °F 59% 30.06 in 10.0 mi ENE 4.6 mph - N/A   Clear
7:53 PM 87.1 °F 95.4 °F 73.9 °F 65% 30.07 in 10.0 mi ENE 9.2 mph - N/A   Clear
8:53 PM 84.9 °F 93.3 °F 75.0 °F 72% 30.08 in 10.0 mi East 8.1 mph - N/A   Clear
9:53 PM 84.9 °F 91.4 °F 73.0 °F 67% 30.09 in 10.0 mi East 10.4 mph - N/A   Clear
10:53 PM 84.9 °F 93.3 °F 75.0 °F 72% 30.11 in 10.0 mi ESE 15.0 mph - N/A   Clear
11:53 PM 84.9 °F 93.3 °F 75.0 °F 72% 30.10 in 10.0 mi ESE 11.5 mph - N/A   Clear